Location: Squirrel Cove
(50.1074°N, 124.9139°W)
Time: 13:34:11
(UTC-07:00)

PCSat - Pass Details

Date: 26 May 2022
Orbit: 784 x 795 km, 67.1° (Epoch: 26 June)

Event Time Altitude Azimuth Distance (km) Brightness Sun altitude
Rises 22:06:21 0° 299° (WNW) 3,300 14.5 -7.1°
Reaches altitude 10° 22:10:11 10° 326° (NNW) 2,372 13.7 -7.6°
Maximum altitude 22:12:46 13° 355° (N) 2,148 12.7 -7.8°
Drops below altitude 10° 22:15:20 10° 23° (NNE) 2,374 12.4 -8.1°
Sets 22:19:12 0° 50° (NE) 3,305 12.8 -8.5°
